Theta_e
304 304 304 304 304 304 304 304 304 304 304 304 304 305 305 307 307 306 304 305 307 309 310 311 312 314 315 315 314 314 315 314 315 315 315 316 316 317 318 318 319 319 319 320 319 318 318 317 318 321 323 326 327 328 329 329 328 330 328 327 329 330 327 322 320 324 327 329 330 329 329 328 326 325 326 325 323 322 319 324 329 323 319 322 321 318 328
304 304 304 304 304 304 304 304 304 304 304 304 304 305 305 306 306 306 305 307 309 309 310 311 311 313 313 313 312 312 313 312 313 313 313 315 315 315 316 317 318 319 319 320 320 319 318 318 319 320 321 322 324 326 328 328 329 329 328 329 328 326 326 324 321 322 323 325 327 326 325 326 326 326 326 325 326 325 322 325 328 323 320 323 321 319 329
303 303 303 303 303 304 304 304 304 304 304 304 304 304 305 305 306 307 307 308 309 309 310 310 310 311 310 310 310 311 312 313 313 313 313 315 315 315 315 316 317 318 318 318 319 320 319 319 318 319 320 320 320 323 325 327 328 327 333 336 329 325 327 325 321 319 319 320 321 323 324 324 325 327 327 326 326 324 322 320 320 323 327 325 319 321 334
302 302 303 303 303 303 303 304 305 304 304 304 304 304 305 305 306 306 307 308 308 309 309 309 309 310 309 310 311 311 312 313 313 314 314 315 315 314 314 316 315 314 315 316 318 319 320 320 320 321 321 321 322 322 322 324 324 330 341 341 331 328 330 328 324 322 321 323 326 331 330 324 322 325 326 326 327 325 324 319 316 322 328 327 327 329 332
302 303 302 302 303 303 303 303 304 305 304 303 304 304 305 305 305 306 307 308 308 308 309 309 309 309 309 310 311 311 311 311 312 313 313 313 314 314 313 314 313 312 314 315 316 318 319 319 320 320 320 319 320 320 320 321 324 332 342 339 336 336 330 328 328 326 326 331 333 333 332 327 323 324 325 326 328 326 323 320 318 322 322 321 334 341 330
302 303 303 303 303 303 303 303 304 304 304 303 304 304 304 305 305 306 306 307 307 307 308 309 308 308 309 309 309 309 309 310 311 312 312 312 313 313 313 313 312 312 313 313 315 316 318 319 318 317 317 317 317 318 320 322 323 327 332 334 341 340 332 329 329 326 326 330 331 329 330 330 328 327 326 326 328 326 323 322 324 327 323 319 330 343 341
303 303 303 303 303 303 303 303 303 304 304 304 304 304 304 305 305 306 306 306 307 307 307 308 308 307 309 309 309 309 309 309 310 310 311 311 311 311 312 312 311 312 312 313 315 315 317 318 316 315 316 316 317 318 318 320 322 322 324 330 335 336 335 335 330 326 327 327 328 329 328 328 328 328 328 327 327 326 325 326 326 328 329 327 328 339 348
303 303 303 303 303 303 303 303 303 304 304 304 304 304 304 304 305 306 306 306 307 307 307 308 307 307 308 309 308 308 308 308 309 310 310 310 310 310 310 310 311 311 312 313 313 314 314 315 314 314 314 315 316 318 318 320 320 320 321 326 330 331 336 338 331 328 328 327 327 328 326 327 326 326 329 328 327 327 326 326 328 327 330 332 332 333 336
303 303 303 303 303 303 303 303 303 303 304 304 304 304 304 304 305 305 305 306 306 306 307 307 307 307 307 308 308 308 308 308 308 309 309 309 310 309 309 310 311 312 312 312 312 313 313 312 312 312 313 314 316 316 318 318 318 320 322 323 326 331 334 336 333 328 327 328 328 327 326 326 323 323 328 327 326 326 325 326 327 327 328 331 332 331 333
303 303 303 303 303 303 303 303 303 303 303 304 304 304 304 304 304 304 304 305 306 306 306 306 306 307 307 308 308 308 307 308 308 309 309 309 310 310 310 311 312 312 312 312 312 313 312 312 312 312 312 314 315 316 318 319 319 320 323 323 325 329 331 333 332 328 326 328 328 327 325 323 320 322 327 329 329 329 327 328 330 328 328 328 329 335 343
303 303 303 303 303 303 303 303 303 303 303 303 304 304 304 304 304 304 304 305 306 306 306 306 306 307 307 308 308 307 307 307 308 308 309 309 309 310 310 310 312 313 312 312 311 312 312 312 312 313 314 315 316 317 317 319 321 321 323 324 326 328 330 333 333 328 325 328 330 329 325 320 321 326 329 330 331 331 330 329 329 330 329 327 329 338 347
303 303 303 303 303 303 303 303 303 304 304 303 303 304 304 304 304 304 304 305 305 305 305 306 306 306 307 307 307 307 307 307 307 308 308 308 309 309 310 310 311 312 312 311 311 312 312 312 312 313 314 315 317 318 318 319 321 322 323 325 326 328 331 334 333 329 327 329 329 327 323 324 329 333 333 331 331 331 332 334 333 333 333 332 332 335 339
303 303 303 303 303 303 303 303 303 304 304 303 304 304 304 304 304 304 304 304 305 305 305 305 306 306 306 307 307 307 308 308 308 308 308 308 309 310 310 310 310 311 311 310 311 312 312 313 313 314 315 316 317 318 318 319 320 320 322 324 326 329 333 335 333 329 327 327 326 324 326 331 335 337 335 334 335 335 332 331 335 338 338 340 343 342 343
304 303 303 303 303 303 303 303 304 304 304 303 303 304 304 304 304 304 304 304 305 305 305 305 306 306 306 307 307 307 308 308 308 309 309 308 309 310 310 310 311 311 311 311 313 315 314 314 315 316 317 318 318 319 319 319 319 320 322 325 326 329 336 340 337 329 325 323 322 325 327 329 332 335 336 338 340 342 339 337 341 345 344 345 348 348 347
303 303 303 303 303 303 303 304 304 304 304 303 303 304 304 304 304 304 304 304 304 305 305 305 306 306 306 307 307 307 307 307 308 308 309 309 309 309 310 310 311 311 310 312 317 319 316 314 315 319 320 319 320 322 322 321 321 321 323 327 329 328 334 340 338 334 332 324 321 324 324 324 330 336 337 338 338 341 345 345 345 349 348 347 349 350 351
303 303 303 303 303 303 303 304 304 304 303 303 303 304 304 304 304 304 304 304 304 304 305 305 306 306 306 307 307 306 306 307 308 308 309 309 309 309 310 310 311 312 312 314 317 318 316 314 315 318 321 321 321 323 323 322 323 323 322 327 330 329 332 336 334 334 336 329 323 323 321 325 339 345 338 334 335 339 342 339 340 350 352 347 348 351 353
303 303 303 303 303 303 303 303 304 303 303 303 303 304 304 304 304 304 304 304 304 304 305 305 305 306 306 306 307 307 307 307 308 308 308 309 309 309 310 309 311 312 312 314 316 316 315 315 316 318 319 320 320 323 324 323 323 325 324 326 328 329 333 332 328 329 333 332 328 324 323 333 348 346 335 333 336 340 339 333 338 353 353 344 347 352 353
303 303 303 303 303 303 303 303 303 303 303 303 304 304 304 304 304 304 304 303 304 304 304 305 306 306 306 306 307 307 307 307 308 308 308 308 309 310 310 309 310 311 312 314 315 315 315 316 316 316 317 318 319 322 324 324 324 325 326 326 327 329 331 332 330 328 328 330 330 327 330 344 351 340 334 336 337 338 336 334 343 352 348 346 350 351 350
303 303 303 303 303 303 303 303 303 303 303 303 304 304 304 304 304 304 304 303 303 304 305 305 306 306 306 306 306 307 307 307 307 307 307 307 308 309 309 309 310 311 312 313 313 313 314 316 316 316 317 319 320 322 324 324 324 325 325 327 329 329 331 335 337 332 327 329 331 330 333 342 345 338 335 336 340 342 340 343 348 348 346 350 352 348 349
303 303 303 303 303 303 303 303 303 303 303 303 303 304 304 304 304 304 304 304 304 304 305 305 305 306 306 306 306 307 307 307 307 308 308 308 308 308 309 311 311 311 311 313 314 314 314 315 315 315 317 319 321 323 324 323 323 323 325 328 331 331 333 335 336 333 330 329 329 331 335 340 338 339 342 344 347 347 346 348 349 348 349 350 348 347 349
303 303 303 303 303 303 303 303 303 303 304 303 304 304 303 304 304 304 304 304 304 304 305 305 305 306 306 307 307 307 307 307 308 308 308 309 308 308 308 311 312 312 312 312 313 314 314 315 315 315 317 320 324 326 326 325 325 325 326 330 332 332 334 336 334 334 335 334 332 332 335 339 335 337 344 347 347 347 346 347 347 347 348 348 347 347 348
303 303 303 303 303 303 303 303 303 303 303 303 303 303 303 304 304 304 304 304 304 304 304 304 305 305 305 305 305 305 306 307 307 307 307 308 308 308 308 309 311 312 311 311 312 313 314 314 315 317 319 322 324 325 325 326 327 327 326 329 331 331 332 334 334 334 335 336 336 335 335 336 337 337 342 344 345 345 345 344 343 342 342 343 344 343 344
303 303 303 302 303 303 303 303 303 303 303 303 303 303 303 304 304 304 304 304 304 304 304 304 304 305 305 305 305 306 306 307 307 307 307 307 307 308 308 308 310 311 310 310 311 313 314 314 315 316 319 321 323 324 325 326 327 327 326 327 329 329 329 332 334 333 332 334 337 336 334 335 336 337 341 343 343 342 340 339 338 337 338 339 340 339 339
303 303 303 302 303 303 303 303 303 303 303 303 303 303 303 303 304 304 304 304 304 304 305 305 306 306 307 307 307 307 307 307 308 307 307 307 307 307 308 308 309 311 310 309 310 312 313 314 315 316 318 320 322 323 325 325 326 326 326 326 327 328 329 332 333 333 334 337 339 337 335 335 334 335 339 341 338 337 336 335 335 335 335 336 336 335 336
303 303 303 303 303 303 303 303 303 303 303 303 303 303 303 303 303 304 304 304 304 305 305 305 306 306 306 307 307 307 307 307 308 307 308 308 308 308 308 308 309 310 310 309 310 312 313 314 315 315 316 319 321 322 324 326 325 324 324 326 326 327 329 331 333 333 335 337 336 334 334 333 331 331 336 338 336 335 334 333 333 333 333 333 333 333 333
303 302 303 303 302 303 303 303 303 303 303 303 303 303 303 303 303 304 304 304 304 304 305 305 305 306 307 307 307 307 307 307 307 307 308 308 308 308 308 308 308 309 308 308 310 311 313 315 315 315 316 318 319 322 324 325 325 324 325 326 325 327 329 331 332 333 334 335 335 335 336 335 331 329 332 335 334 334 333 332 331 331 330 330 330 330 331
303 303 302 302 302 302 303 303 303 303 303 303 302 302 303 303 303 304 304 304 304 305 305 305 306 306 307 307 306 306 307 307 307 307 307 308 308 308 308 308 309 308 308 309 308 309 312 315 316 315 316 317 317 319 322 324 325 326 326 327 326 328 331 332 331 331 333 335 335 336 337 337 332 328 328 330 331 330 330 329 328 327 327 327 327 327 328
303 303 303 303 303 302 302 302 302 302 302 302 302 302 303 304 304 305 305 305 305 305 305 306 306 306 306 306 307 307 307 308 307 307 307 308 308 309 309 309 309 308 308 309 309 310 314 316 316 316 316 316 317 318 320 323 325 326 326 327 328 329 331 331 331 331 332 333 333 333 335 335 331 328 327 327 327 328 327 327 326 326 325 324 323 323 324
302 302 302 303 303 303 302 302 302 302 302 302 302 302 304 305 306 306 305 305 305 305 305 305 305 306 306 307 307 307 308 308 308 308 307 307 308 308 308 309 308 308 309 309 309 312 314 315 315 316 316 316 317 318 320 323 325 326 327 328 328 328 329 330 331 331 332 332 332 332 333 332 329 327 327 326 326 327 327 326 325 324 322 321 320 320 320
303 303 303 303 303 302 302 302 303 302 302 302 303 303 305 306 306 305 305 305 305 305 305 305 305 306 306 307 307 308 308 309 309 309 308 308 308 308 308 308 308 308 309 309 310 312 314 315 316 316 315 315 317 318 321 324 326 327 327 328 328 328 328 328 329 330 331 331 332 332 331 329 327 326 326 326 326 326 325 324 323 322 321 319 319 319 319
304 304 303 303 303 303 303 303 303 302 302 302 303 304 305 307 307 306 305 305 305 304 305 305 305 306 306 307 308 309 309 310 310 310 310 310 309 309 308 308 308 308 309 310 310 311 314 316 317 316 316 316 317 319 321 324 325 326 327 328 327 327 327 326 327 328 330 331 331 330 329 328 326 326 327 326 325 324 324 323 321 320 320 320 319 319 319
305 304 304 303 303 303 303 303 303 303 303 303 303 304 304 305 305 305 304 304 304 304 304 305 306 306 307 308 308 309 310 311 312 311 311 311 310 310 308 308 308 309 309 310 312 313 314 315 316 317 317 317 318 320 322 323 324 325 327 327 327 326 325 325 327 329 331 331 330 329 328 326 325 326 327 326 324 323 323 323 322 321 319 318 318 318 318
306 305 304 303 303 303 304 304 304 305 305 305 305 305 305 305 306 305 305 304 303 304 305 306 306 307 307 308 309 310 311 312 312 312 313 312 310 310 309 308 308 309 309 311 313 315 315 315 315 317 318 318 319 320 322 323 324 325 325 325 325 324 325 326 328 330 330 330 329 328 327 325 324 324 325 324 322 322 323 323 324 323 321 319 318 317 317
306 305 305 304 304 305 306 306 306 307 307 306 306 307 307 307 307 307 306 305 305 305 306 306 306 307 307 308 310 311 311 312 312 313 314 313 311 311 312 311 309 309 311 312 312 314 317 316 315 317 318 319 319 321 322 323 323 324 324 324 323 323 324 326 327 328 327 327 326 325 324 323 322 323 323 322 321 321 322 322 322 323 323 323 322 320 317
306 305 305 306 307 307 308 309 309 309 308 307 307 307 307 307 307 307 307 306 306 306 307 307 307 307 308 309 311 312 312 312 312 313 314 314 312 312 314 315 315 314 314 314 313 315 317 317 316 318 320 320 320 321 323 323 323 323 323 322 321 321 322 323 324 325 325 325 324 324 323 324 324 324 324 324 323 322 320 320 320 320 321 322 321 320 318
307 307 307 308 308 309 310 310 310 310 309 308 308 308 307 307 306 306 306 306 306 306 307 308 308 308 308 309 310 311 312 313 313 313 313 314 314 313 313 316 318 317 314 312 312 315 318 317 317 320 322 321 321 322 322 322 322 322 322 320 319 319 319 321 322 324 324 325 325 325 325 325 324 324 325 326 325 324 322 321 320 319 318 318 317 317 318
308 309 309 310 309 310 310 311 311 310 310 310 309 308 308 307 307 307 307 307 306 306 306 307 307 308 309 310 311 311 312 313 314 314 314 315 315 314 313 315 317 316 314 313 315 317 318 318 319 320 321 321 321 321 321 321 321 321 321 321 322 321 320 320 321 322 323 323 323 324 325 325 325 325 325 325 325 325 324 323 322 321 321 320 318 317 318
309 310 310 310 310 311 311 311 311 311 310 310 310 309 308 308 309 308 308 307 307 307 306 306 306 307 308 310 310 310 311 313 314 314 315 314 315 315 314 314 315 316 316 317 318 317 317 317 317 318 319 319 320 320 321 321 321 321 321 321 322 322 321 320 321 322 322 321 322 322 323 324 324 325 325 325 325 325 325 325 324 324 323 322 321 321 322
310 310 310 310 311 311 311 311 311 311 311 311 310 309 309 310 310 310 309 308 308 308 308 307 306 307 308 309 310 310 311 312 313 315 316 316 316 316 315 315 315 317 317 318 318 317 315 316 316 316 316 318 320 320 320 320 319 319 319 319 319 321 321 320 321 322 323 323 322 322 321 322 323 324 324 325 325 325 325 324 324 324 324 323 323 323 324
311 311 311 311 311 311 311 311 311 311 311 311 311 311 311 311 310 310 311 310 309 310 310 309 309 309 309 310 311 312 312 313 314 316 317 317 316 316 317 318 318 318 317 316 317 317 316 315 314 315 316 319 320 319 318 318 317 317 317 317 319 321 321 321 321 322 322 322 323 322 322 323 323 324 324 324 324 325 325 324 324 324 324 325 325 324 324
311 311 311 311 310 310 311 311 312 312 313 313 312 312 312 311 311 311 312 313 313 313 311 311 312 313 313 312 312 312 313 314 315 315 317 318 317 317 319 319 318 317 316 315 316 318 318 315 314 315 318 320 320 318 317 317 318 319 319 320 320 321 321 321 322 322 322 323 323 323 323 324 324 324 325 325 325 325 325 326 326 326 326 326 327 326 326
313 312 311 311 310 310 311 312 312 312 312 312 312 311 311 312 312 314 314 313 314 315 313 312 314 316 315 314 314 314 315 316 316 316 318 319 318 318 320 318 316 316 316 316 317 319 318 316 315 316 318 320 320 320 319 318 319 321 321 321 320 320 321 321 322 322 322 323 323 323 323 324 324 325 325 325 325 326 326 326 326 326 326 326 326 326 326
314 313 312 311 310 310 311 311 311 311 311 310 310 311 312 312 314 316 315 313 314 315 315 314 314 315 315 316 315 315 315 316 316 317 319 319 319 320 320 319 316 316 317 317 317 318 318 317 317 318 319 319 321 321 321 320 320 321 321 321 320 321 321 321 322 322 322 322 322 322 323 323 324 324 325 325 325 326 326 325 325 326 326 326 326 326 326
314 313 312 311 310 310 311 311 311 311 311 310 311 313 314 315 316 317 317 315 314 316 316 315 316 317 317 317 316 316 317 317 317 318 319 320 320 321 321 320 319 319 318 317 318 318 317 318 320 320 319 320 321 321 321 321 321 321 321 321 321 321 321 322 322 322 322 322 322 322 322 323 323 324 324 324 325 325 325 325 325 325 326 326 326 326 326
314 314 313 311 310 311 313 313 311 312 313 313 312 314 315 315 316 317 317 316 316 317 317 316 316 318 318 318 317 318 318 318 318 319 320 321 322 321 319 319 321 321 320 318 317 318 318 319 320 320 320 320 321 321 320 320 320 320 321 320 320 321 322 322 322 322 322 322 322 322 322 323 323 323 323 323 324 324 324 324 324 324 325 325 325 326 326
315 313 313 313 312 312 313 314 313 313 314 315 314 315 315 316 316 317 317 317 317 318 318 317 317 318 319 319 319 319 318 319 319 320 321 322 322 320 319 320 321 321 320 318 318 318 319 319 320 320 320 320 321 321 321 320 321 321 321 320 321 321 322 322 322 322 322 322 322 322 322 322 322 322 322 323 323 323 323 323 323 324 324 324 324 324 325
314 313 312 313 313 313 314 316 316 315 315 314 314 315 316 317 318 318 318 318 319 319 319 318 318 319 319 319 320 320 320 321 322 322 321 322 323 321 321 321 321 320 319 318 317 318 319 319 319 320 321 321 321 321 321 321 321 322 321 321 320 321 322 323 322 322 321 321 322 321 321 321 321 321 320 321 321 322 322 322 322 322 322 323 323 323 323
313 312 312 313 314 315 316 316 315 314 314 314 315 316 317 318 318 318 318 319 320 319 318 318 319 320 319 319 320 321 321 322 323 323 322 322 323 321 320 320 319 319 319 318 318 318 319 319 319 321 321 321 321 321 320 321 321 321 321 321 320 320 321 322 322 321 321 321 321 321 320 320 320 320 319 319 319 320 320 320 320 320 320 320 321 322 322
312 312 312 312 314 316 317 316 314 315 316 316 315 315 316 317 318 319 319 320 320 319 318 318 319 319 318 318 318 319 319 320 321 321 321 321 322 321 320 320 319 319 319 319 319 319 319 320 320 321 320 320 320 320 320 320 320 320 320 320 320 320 320 321 320 320 321 320 320 320 320 319 319 319 319 318 318 318 318 318 318 318 318 318 319 319 321
311 311 312 312 314 315 315 314 314 315 316 316 316 316 316 317 318 319 319 320 320 319 319 319 318 317 317 317 317 318 319 319 319 319 320 321 321 321 321 320 320 319 319 319 320 320 320 320 320 320 319 319 319 319 319 320 320 320 319 319 319 319 319 319 319 319 319 319 319 319 319 318 318 318 318 318 318 318 318 319 318 318 318 318 318 318 318
311 312 312 313 314 315 314 314 314 315 316 317 317 317 318 318 319 318 319 319 319 318 319 319 318 317 317 318 319 320 320 320 320 320 320 320 321 321 320 320 320 320 319 320 320 320 320 320 320 320 319 319 319 319 319 319 319 319 319 319 319 319 319 318 318 319 318 317 317 317 317 317 317 317 317 317 317 316 317 318 318 318 317 318 318 318 318
312 313 313 314 314 315 315 315 315 315 316 317 318 318 319 319 319 318 318 318 318 317 318 319 318 318 318 320 320 320 320 320 320 320 320 320 320 320 320 320 319 319 319 319 319 318 319 319 319 319 319 319 319 318 319 318 318 319 319 319 318 318 318 318 318 318 317 317 317 317 317 317 317 316 316 316 316 316 316 316 316 316 316 317 317 318 318
Wind_Speed
28 28 27 27 27 27 26 25 24 24 23 23 22 20 18 12 17 29 25 17 21 15 6 6 7 7 12 16 18 18 15 13 14 17 17 15 13 13 12 12 13 12 11 13 15 12 11 13 14 11 9 9 9 13 20 20 18 15 10 10 14 11 6 6 6 6 9 11 9 15 20 17 12 11 11 10 9 9 7 5 4 4 6 5 5 7 7
28 28 27 27 27 26 26 25 23 22 20 19 20 17 16 17 24 32 23 16 15 11 4 5 6 7 13 15 16 19 17 15 15 15 13 12 10 9 11 12 12 13 13 13 15 14 12 12 14 12 9 10 14 15 20 22 15 11 9 9 11 10 7 6 5 4 6 9 8 9 16 15 9 8 11 13 14 12 9 7 3 4 8 8 6 6 6
28 28 28 27 27 26 25 24 22 22 19 17 17 16 16 16 18 22 21 21 17 12 8 9 8 9 14 15 15 17 15 13 15 13 13 14 11 8 10 14 13 12 12 13 13 13 12 12 13 12 11 11 14 17 15 16 14 11 15 17 14 10 8 8 8 8 9 10 7 4 8 10 8 9 12 15 17 16 11 6 5 6 8 9 8 6 6
28 28 28 27 27 26 25 23 22 21 19 16 15 15 13 11 9 10 15 20 17 12 13 13 9 8 10 10 11 12 9 12 19 18 14 13 13 11 10 14 14 13 16 16 12 13 15 13 10 9 12 11 9 21 28 19 16 19 19 19 13 7 7 11 14 12 9 9 8 4 3 7 12 14 15 14 15 18 13 6 7 6 4 6 8 7 7
28 28 28 27 27 26 24 23 22 20 18 16 15 15 12 7 5 7 9 12 12 12 15 13 8 9 11 7 7 13 12 11 16 17 12 11 15 12 9 11 12 13 17 15 12 16 17 14 13 13 14 14 16 25 26 15 21 32 20 16 10 4 7 13 18 17 13 9 8 9 9 9 13 17 18 16 15 15 14 12 12 7 4 6 8 5 7
29 29 28 28 27 26 25 24 22 20 18 16 14 13 11 7 8 13 12 9 7 9 13 16 13 14 14 9 8 13 14 10 11 12 11 12 12 8 8 11 11 13 15 12 11 16 14 11 14 15 15 16 18 23 21 12 20 30 16 13 8 3 6 11 15 19 19 15 11 12 13 12 12 15 18 18 18 17 15 14 13 9 6 9 8 5 5
29 29 29 28 27 25 24 23 22 20 19 17 14 12 11 10 12 16 14 10 10 13 17 19 17 14 12 8 8 13 13 12 12 10 9 11 9 5 8 13 13 13 12 9 8 12 12 11 13 14 17 18 14 14 16 13 17 21 15 9 3 4 5 6 9 11 16 20 18 16 16 15 13 14 17 17 19 21 19 15 11 10 10 10 10 10 9
30 30 29 28 27 25 24 22 21 20 18 17 15 14 14 13 12 12 11 10 14 17 18 16 12 11 10 8 8 11 13 14 13 10 10 10 8 5 9 14 14 11 9 8 8 11 13 14 15 15 16 15 11 8 8 11 16 18 14 11 7 7 6 6 6 4 7 16 20 20 20 19 15 12 14 17 18 19 19 16 12 8 8 9 10 12 11
30 29 28 27 27 25 23 21 20 19 18 17 17 18 18 17 16 15 11 8 10 12 12 11 8 7 8 7 7 9 12 15 15 12 13 13 11 9 10 12 11 8 8 8 9 13 16 15 18 20 18 15 14 11 8 11 17 17 11 10 11 9 5 6 6 3 3 8 15 21 21 19 18 16 14 16 15 13 13 14 14 12 10 8 8 8 8
30 29 27 27 26 24 22 20 19 17 17 17 18 19 19 18 18 16 10 6 8 8 8 9 8 7 6 6 8 10 12 14 15 11 11 14 15 14 11 9 7 5 7 9 11 17 21 21 24 27 26 25 24 23 21 18 15 13 11 10 10 9 6 4 5 4 4 4 7 14 16 15 17 17 13 9 8 9 10 11 13 15 13 8 6 7 6
29 28 26 25 24 22 21 19 18 16 16 17 18 19 20 18 17 16 9 5 7 8 7 6 6 8 9 9 11 13 13 14 13 9 8 12 17 17 14 11 8 5 8 12 17 22 25 27 29 30 30 30 27 27 27 23 18 15 12 10 10 11 9 5 5 4 5 4 5 6 8 12 11 10 10 11 10 9 8 8 9 11 11 10 8 8 6
27 26 26 24 23 22 20 19 17 16 16 17 17 19 19 17 17 16 9 4 6 8 7 8 10 11 14 16 14 13 14 15 15 13 12 14 18 21 17 11 8 9 12 16 20 21 21 24 25 24 25 25 22 23 23 20 19 17 13 11 11 12 10 4 5 4 3 4 3 5 8 8 3 3 8 12 14 11 8 9 8 5 5 7 6 5 4
26 25 24 23 23 21 19 17 15 15 16 15 16 17 17 15 15 15 10 6 6 7 7 11 16 17 18 17 16 15 17 18 16 15 14 14 16 20 18 13 11 14 18 20 20 15 11 13 14 13 15 15 15 17 18 17 18 17 13 12 10 8 8 5 2 5 4 3 4 6 6 3 5 3 5 4 5 5 4 6 5 4 5 2 3 3 3
24 23 22 22 22 19 17 15 14 14 15 15 15 16 16 15 15 16 13 6 5 9 11 10 13 16 16 15 13 14 17 17 14 12 12 12 13 17 18 16 15 18 21 18 11 4 4 5 7 7 7 8 9 11 12 12 13 15 14 11 8 6 6 4 1 3 4 5 5 4 4 4 5 5 2 3 2 2 3 1 3 3 6 6 5 6 7
21 21 21 20 19 17 14 13 13 13 14 14 15 16 16 16 16 16 15 10 6 10 12 10 10 13 13 12 12 10 10 10 9 10 12 12 12 14 17 17 16 20 24 15 3 4 1 3 4 4 3 4 6 6 7 7 7 9 11 9 7 6 4 3 2 1 3 3 4 4 5 6 6 3 2 4 7 7 7 4 3 4 5 8 7 7 9
19 19 19 18 16 15 13 13 13 13 14 14 14 15 16 15 15 16 16 13 8 6 8 11 15 18 14 13 15 12 7 6 6 8 8 8 11 14 17 19 16 16 18 12 0 3 1 3 3 4 4 3 4 5 6 6 5 6 8 9 7 4 3 4 3 1 3 3 2 5 6 4 4 4 3 2 9 11 7 3 4 4 5 8 10 9 8
18 18 17 16 15 15 14 14 14 13 13 13 13 15 15 14 14 15 15 14 10 12 20 22 20 19 13 9 11 11 8 8 7 5 4 7 13 15 15 18 16 12 10 6 1 2 3 4 4 4 4 3 3 5 6 6 5 6 10 13 11 5 3 3 3 3 3 5 1 4 3 2 2 3 5 6 11 13 3 3 3 3 5 11 13 10 8
17 17 16 16 16 15 15 15 14 13 13 12 12 14 15 14 14 13 15 16 11 13 23 23 17 17 13 8 11 12 11 10 8 4 5 8 8 10 14 15 12 8 7 4 1 2 3 4 4 4 4 4 3 4 6 5 4 4 7 8 7 6 4 3 3 5 3 4 0 3 0 1 3 4 4 2 10 10 4 6 3 0 7 16 18 13 12
17 17 17 16 16 15 15 14 13 13 12 11 12 14 14 14 14 14 16 17 13 15 23 22 17 20 19 15 18 18 14 12 9 5 5 4 3 11 19 15 7 5 5 2 1 2 3 3 3 4 4 4 3 3 5 4 4 4 6 5 5 5 5 4 3 4 4 1 1 1 2 4 3 8 9 6 7 3 4 1 7 9 13 19 20 17 16
18 17 17 16 16 15 14 13 12 12 12 11 12 15 16 15 15 15 15 16 17 22 29 25 19 22 22 19 19 18 15 13 11 6 4 5 8 14 13 6 2 5 4 2 1 2 3 4 4 3 4 4 2 2 3 5 5 4 4 3 3 4 3 2 3 3 4 3 0 2 1 6 6 7 6 3 1 3 3 6 13 16 18 19 20 19 17
18 18 17 16 15 14 14 13 12 12 13 12 12 16 19 16 13 13 15 15 16 19 21 18 15 19 21 20 20 20 18 17 15 11 10 11 11 8 4 4 4 2 1 2 3 2 2 2 3 3 4 3 1 0 2 4 4 2 3 2 1 3 3 1 2 3 2 2 1 2 4 13 12 3 1 4 5 8 12 13 11 15 18 18 20 21 19
17 17 16 16 15 15 14 14 13 13 13 13 13 15 17 16 13 13 14 15 17 20 23 24 25 26 27 26 26 26 25 25 24 21 18 17 15 11 11 12 7 2 2 1 2 2 3 3 3 3 3 2 1 1 1 2 2 2 4 2 1 2 2 1 2 2 2 4 5 6 13 23 20 5 11 17 18 19 23 22 17 17 19 19 21 21 21
18 17 17 16 16 15 15 14 14 14 14 13 13 14 16 16 15 14 15 17 20 24 28 29 28 27 26 24 22 21 21 22 24 25 23 21 17 14 16 16 7 4 4 3 2 1 3 3 3 3 3 2 1 0 0 1 2 2 3 2 2 3 2 1 2 3 4 5 5 8 15 26 27 16 17 25 25 23 26 28 24 21 22 24 24 24 24
19 18 18 17 16 16 16 15 14 14 14 14 13 14 15 16 14 14 15 15 15 18 20 19 18 18 17 19 18 16 17 18 20 22 22 22 17 12 13 14 8 5 5 3 3 4 4 4 3 2 2 3 1 1 1 0 1 3 3 1 2 4 5 3 2 4 4 3 6 11 13 21 25 22 16 23 29 27 27 29 26 23 25 27 26 26 26
19 19 18 18 17 16 16 15 14 14 14 13 13 13 15 15 14 14 14 13 13 12 9 11 19 21 18 19 19 17 16 16 16 18 20 23 23 20 17 15 10 5 4 4 6 6 4 2 2 3 4 3 2 1 0 1 1 2 3 1 0 4 7 5 2 3 2 3 5 9 16 21 19 22 18 18 25 27 28 28 27 26 27 27 24 24 25
20 19 18 18 17 17 16 16 15 15 15 15 15 14 15 15 14 14 15 15 16 13 8 10 19 21 16 17 20 19 20 20 18 18 19 22 25 25 23 21 18 13 9 7 9 9 5 1 2 4 4 3 2 1 1 1 1 1 1 2 2 3 5 3 2 4 4 5 5 5 10 17 15 19 21 19 21 25 27 26 26 27 27 26 26 26 26
22 21 20 19 18 17 17 16 16 16 16 16 16 16 17 17 15 15 17 15 11 9 6 8 16 21 22 25 25 20 19 22 22 20 21 23 25 26 24 22 20 18 14 10 10 9 5 2 3 5 5 6 7 3 3 2 1 1 2 2 2 2 2 1 2 4 2 2 5 5 2 7 11 13 18 21 22 25 26 26 25 25 24 24 26 27 26
25 24 23 22 20 18 17 17 16 17 16 17 17 17 18 17 13 13 16 16 13 11 11 15 22 26 26 25 22 16 15 18 20 22 23 23 24 26 25 22 19 16 14 11 8 6 3 2 3 3 4 8 7 3 3 2 1 1 2 3 4 3 1 1 0 3 4 7 9 6 0 2 11 13 12 20 24 26 26 25 23 23 22 23 25 26 26
26 26 26 24 20 17 16 15 15 16 16 16 17 17 15 13 10 9 10 11 12 14 17 19 20 19 18 20 23 23 20 18 16 19 21 20 20 22 23 21 18 16 14 13 9 5 3 4 4 5 7 9 6 2 2 1 1 2 2 4 5 4 3 2 3 4 8 14 15 10 6 2 4 9 9 15 22 25 24 22 20 21 21 22 24 25 25
26 25 25 23 19 16 14 14 13 14 15 15 16 14 13 10 6 3 4 4 5 9 13 12 10 13 20 26 28 25 21 17 15 16 18 19 19 19 19 18 18 18 16 13 10 6 2 2 4 6 10 11 6 2 2 1 2 3 2 3 3 4 4 5 7 7 9 14 13 13 12 9 7 5 9 14 19 23 24 21 20 20 20 21 22 23 22
24 23 22 20 17 15 15 14 14 15 15 14 11 9 7 5 3 4 8 9 10 14 15 11 11 16 21 22 20 18 16 14 13 12 13 16 18 18 18 16 16 16 15 13 11 7 4 3 3 4 7 10 7 2 2 2 2 2 1 1 3 4 4 6 9 10 11 9 9 14 14 12 10 8 9 13 15 19 22 22 20 19 18 18 20 20 20
25 22 20 18 16 16 16 16 16 17 17 16 13 12 11 10 10 12 13 12 14 16 14 9 8 9 9 11 16 19 16 13 11 11 12 14 15 15 16 17 15 14 14 11 8 6 6 6 6 5 6 8 6 2 2 3 2 3 7 6 3 3 5 8 9 7 6 11 14 13 12 10 9 8 9 9 11 15 19 20 18 17 17 17 18 18 18
24 20 18 16 15 16 16 16 16 17 18 18 17 15 13 11 10 9 8 8 12 14 10 6 4 4 5 12 18 18 14 10 9 7 6 9 10 10 12 15 15 14 13 10 6 4 4 5 5 4 5 6 4 2 2 3 3 6 7 4 2 3 3 4 8 7 4 6 10 10 11 12 12 11 10 10 11 13 14 15 15 15 17 18 18 17 17
22 17 15 14 14 15 16 16 16 16 16 16 15 12 9 10 10 8 8 8 9 9 9 6 4 4 7 11 12 10 7 5 4 5 3 3 6 8 7 6 7 9 9 9 7 4 3 2 1 1 2 4 3 2 2 2 3 3 4 4 4 4 6 5 7 8 7 8 13 17 17 16 14 12 10 10 11 12 13 15 16 17 18 17 16 16 16
19 14 13 13 14 15 15 14 14 14 13 13 13 10 9 11 12 12 12 11 8 6 6 5 5 4 6 7 5 5 7 6 3 3 3 2 3 7 6 2 0 1 2 3 5 4 2 1 1 1 1 2 3 2 1 1 1 5 8 7 6 5 6 9 12 15 12 11 16 19 18 17 16 13 11 11 11 12 14 15 16 17 18 17 16 16 17
17 14 14 15 15 16 14 12 11 11 10 11 13 12 12 14 16 17 17 16 13 9 6 4 4 4 4 4 4 6 10 7 3 3 1 2 2 3 1 2 1 2 2 3 4 3 2 2 2 1 1 1 2 1 1 1 3 8 11 9 7 8 9 11 16 20 16 12 15 17 17 17 16 14 12 12 11 12 14 15 15 16 17 16 16 16 18
17 16 16 16 16 14 13 11 11 12 13 14 14 14 15 17 17 15 14 14 13 13 10 5 4 5 5 4 4 7 8 4 1 2 1 1 2 1 2 2 0 1 2 2 3 2 1 1 0 1 1 1 0 1 3 4 7 10 11 8 7 8 9 11 17 22 19 16 16 15 14 15 15 13 12 12 11 11 13 15 15 16 16 16 15 15 16
17 17 17 16 14 10 8 10 12 16 18 16 12 12 13 12 9 7 7 7 8 10 10 7 5 6 5 4 7 9 7 3 2 2 1 4 3 2 1 2 3 3 2 1 2 2 1 2 2 2 2 2 3 3 4 7 11 12 12 11 12 13 13 12 13 16 16 15 15 15 15 15 14 13 12 12 11 11 12 13 13 14 15 15 16 17 16
19 19 16 14 12 9 9 14 19 21 20 15 9 7 7 5 3 3 4 5 4 5 7 7 7 8 7 5 8 12 9 4 2 2 2 5 4 2 2 3 3 2 2 1 1 2 1 1 1 1 2 3 3 3 7 11 14 15 13 14 15 17 17 16 14 14 14 13 12 13 15 16 15 13 12 12 12 13 12 12 12 12 12 13 14 16 17
23 20 15 12 13 13 13 17 19 17 13 8 6 6 4 3 3 2 3 3 3 4 6 6 7 10 12 9 6 7 6 6 4 2 0 3 3 2 3 2 0 1 1 0 1 1 2 1 0 1 1 1 2 7 13 17 17 16 14 13 14 15 15 14 13 12 13 13 13 13 13 14 14 14 14 14 14 14 14 13 13 13 13 13 13 13 13
25 23 18 18 19 18 16 16 15 10 6 5 4 4 2 2 3 3 3 2 2 2 5 5 4 5 8 10 8 6 6 7 7 4 1 2 3 2 1 2 2 1 1 1 0 0 1 1 2 2 2 2 6 11 15 15 14 12 10 9 9 11 11 12 12 13 13 14 14 14 13 14 15 15 16 16 15 15 14 14 15 15 15 15 15 15 14
23 23 23 22 22 19 16 13 10 5 4 4 2 2 2 2 2 2 2 2 2 1 3 5 5 4 4 6 8 7 6 5 4 3 2 1 1 1 1 1 2 2 1 1 2 1 0 2 3 2 2 4 7 9 10 10 9 9 7 7 9 11 12 12 13 14 14 15 15 14 14 15 16 16 16 16 16 16 17 17 16 16 16 15 16 16 15
20 20 21 19 17 14 11 7 5 3 2 2 2 2 2 1 1 1 1 2 3 3 3 6 8 8 5 4 6 6 4 3 3 3 2 1 0 1 1 1 2 1 1 2 0 2 2 3 3 3 3 5 7 6 5 5 5 6 7 9 11 13 13 14 14 14 15 15 15 15 16 17 18 18 17 17 18 19 20 20 19 17 16 16 16 17 16
21 18 16 12 10 9 7 4 3 3 2 1 3 4 4 4 4 3 2 2 3 4 7 8 9 7 3 3 4 4 3 2 3 3 2 1 1 1 1 2 2 1 1 1 2 3 3 3 4 6 7 9 9 8 7 7 7 7 9 10 12 13 14 15 16 16 16 16 16 17 17 18 19 19 18 18 19 20 20 20 21 20 19 18 19 19 19
19 15 10 6 5 7 6 3 3 4 3 2 3 3 4 6 6 6 6 6 6 7 10 11 9 6 3 1 2 2 2 2 2 1 1 0 1 1 2 1 1 1 1 2 3 3 3 3 5 9 12 13 11 8 6 7 8 9 11 12 13 14 15 16 16 16 16 17 18 19 19 20 20 21 21 20 20 20 20 20 21 21 22 21 21 21 20
14 12 7 3 3 5 4 1 2 2 1 3 7 8 8 8 10 11 12 12 11 12 13 12 9 4 2 1 0 1 2 2 0 1 1 1 2 2 1 1 1 2 3 3 4 5 5 4 5 10 14 14 11 8 7 8 11 13 14 14 14 15 17 17 17 17 18 18 19 20 21 22 22 22 21 20 20 20 21 20 20 20 21 21 21 20 20
12 11 6 2 2 3 2 1 3 4 6 10 16 18 16 15 16 18 17 13 11 12 14 14 10 5 2 2 0 1 1 2 0 1 1 1 1 0 1 1 2 3 3 4 5 4 4 5 9 15 18 17 12 10 10 12 15 16 16 16 16 17 18 18 18 18 19 20 20 20 21 21 21 20 20 20 20 19 20 20 19 19 19 19 19 19 19
12 10 5 2 1 1 2 4 7 10 12 15 19 22 22 19 17 20 21 17 13 12 11 10 8 5 2 2 2 2 1 2 2 1 1 1 1 1 2 3 4 3 3 4 3 3 4 9 14 18 20 18 13 9 7 7 10 13 15 16 17 18 19 19 18 18 19 19 19 19 18 18 18 19 20 21 20 20 20 20 19 19 18 18 18 18 19
11 9 5 4 2 2 5 7 7 7 11 15 19 25 28 24 20 22 26 24 19 14 10 8 7 5 4 4 4 2 2 3 3 2 2 3 3 2 3 3 4 4 4 2 2 5 9 14 17 20 24 23 19 16 14 12 11 12 15 17 16 17 18 19 17 17 17 18 17 17 18 17 17 17 18 20 20 19 19 18 19 19 19 19 19 18 18
7 5 4 7 7 7 11 11 7 6 11 17 19 22 24 24 25 27 28 28 24 18 12 10 10 7 3 3 3 2 3 4 3 3 4 5 3 3 4 5 4 4 4 4 6 10 14 16 18 22 26 25 23 21 21 20 18 18 20 20 19 19 19 18 17 16 16 16 16 16 17 17 17 16 17 18 18 18 18 17 17 17 17 17 18 18 18
7 7 9 12 13 12 12 13 10 8 9 14 19 21 20 20 23 24 24 25 25 19 12 7 6 4 2 3 4 2 3 3 3 3 4 4 3 2 4 5 5 5 7 12 15 16 17 18 20 22 24 24 23 20 19 20 21 22 22 22 21 20 19 18 17 17 17 17 18 18 18 18 18 18 18 18 19 20 20 19 17 16 16 16 14 13 14
7 9 10 15 19 18 15 14 13 11 11 16 23 27 25 23 23 24 23 24 22 17 11 9 7 4 2 3 3 2 2 3 4 4 4 4 3 3 5 7 9 11 14 17 18 18 18 19 20 20 20 21 21 19 18 18 19 20 21 22 22 21 22 22 21 21 20 20 19 19 20 21 20 20 20 20 21 21 22 21 19 17 17 18 17 14 13
Wind_Direction
323 323 323 323 324 324 325 326 325 326 331 330 331 333 322 303 286 287 293 319 324 311 283 266 261 251 256 257 260 265 271 275 275 276 277 278 280 277 275 275 278 280 277 281 284 279 278 278 277 287 279 252 238 215 202 196 196 201 211 199 186 190 207 215 228 257 273 272 238 188 181 186 198 205 203 210 218 216 220 224 186 191 217 192 194 241 243
322 321 321 321 321 321 321 322 323 324 328 328 328 324 312 302 294 293 307 331 310 280 257 272 262 260 267 266 268 269 267 272 275 275 279 283 283 280 283 287 288 288 285 283 283 281 277 275 278 286 291 296 297 267 221 208 206 197 199 193 175 183 201 192 196 227 246 263 265 204 186 187 198 203 197 204 212 215 227 233 193 196 217 196 184 236 243
321 320 320 319 318 317 316 318 319 321 323 323 321 314 307 306 296 289 306 321 301 264 247 261 263 272 274 272 275 270 265 280 295 305 307 300 304 315 307 309 321 328 329 325 312 300 294 285 280 282 284 287 301 308 285 245 231 216 202 188 176 185 193 182 193 205 209 222 236 213 184 184 195 204 202 202 204 209 222 225 205 217 223 210 204 228 253
321 320 320 317 315 314 313 312 312 314 318 318 314 309 303 304 298 290 307 316 309 291 281 276 269 279 285 283 289 297 305 312 317 323 318 306 318 332 319 319 337 354 354 347 332 328 329 317 305 305 305 295 306 335 337 322 297 282 242 199 183 199 190 188 202 205 205 215 224 235 215 190 192 199 206 207 202 204 208 213 222 212 190 224 227 221 244
322 320 320 317 314 312 311 308 306 306 310 311 308 302 293 286 284 293 311 317 314 313 313 312 313 319 322 315 303 312 314 309 312 312 304 312 328 332 324 335 354 0 353 345 328 333 341 338 340 345 332 326 330 335 335 333 331 321 284 205 182 213 196 193 202 206 210 215 223 234 240 226 201 191 200 212 213 209 205 212 225 204 157 245 246 207 226
321 320 320 318 314 312 310 307 303 301 300 300 300 294 284 273 276 288 300 308 301 307 316 319 321 320 316 307 293 297 295 292 302 303 302 314 325 323 305 318 341 349 350 351 331 330 338 338 343 350 341 335 335 332 328 335 353 344 306 214 175 162 201 197 199 207 213 217 230 236 238 245 227 196 193 203 211 219 220 219 217 198 199 243 239 189 201
321 320 319 317 314 311 308 305 303 299 295 294 291 283 276 277 281 287 294 295 291 298 304 305 305 307 309 309 298 290 287 286 287 291 300 302 304 311 294 298 319 335 341 350 332 324 333 334 336 342 336 331 331 328 324 334 360 354 322 277 226 175 193 193 195 206 209 214 228 239 243 250 241 209 195 198 206 216 224 230 223 203 210 232 228 219 224
320 320 318 314 313 310 305 303 301 296 292 290 282 272 270 271 276 292 304 299 291 295 299 301 301 300 301 300 293 293 293 292 289 284 286 290 297 308 293 296 314 333 337 336 319 311 320 323 323 326 326 326 327 319 316 329 337 334 323 315 297 245 207 177 180 204 212 212 217 226 238 248 251 232 206 202 207 210 214 225 232 229 226 223 219 226 237
318 318 317 313 311 309 304 302 300 294 287 283 278 273 272 271 275 289 301 296 291 297 302 302 299 292 292 295 306 316 312 308 308 296 285 291 296 294 298 303 312 326 326 320 308 306 312 313 310 311 309 304 301 294 292 312 316 312 311 315 307 285 228 164 153 169 231 226 214 215 226 242 254 251 229 211 209 210 209 209 213 223 231 228 219 222 240
317 316 315 314 311 308 304 300 298 292 282 277 274 274 278 280 283 292 295 285 291 297 294 292 288 281 291 305 307 309 311 313 317 308 294 298 298 300 312 313 306 311 301 290 292 299 303 305 302 299 294 289 287 283 282 285 285 288 298 298 294 292 267 173 135 160 207 259 245 219 213 227 244 248 244 234 217 214 216 206 199 205 212 222 230 219 218
317 316 314 313 311 307 304 300 296 287 278 274 270 270 276 280 286 294 295 279 284 287 281 281 280 278 287 293 291 294 298 303 308 306 302 302 297 296 300 296 291 285 264 267 282 289 293 299 298 294 289 287 285 283 283 281 273 271 283 285 286 297 283 215 144 144 183 213 277 268 222 218 228 231 237 251 249 236 237 234 216 210 209 209 210 207 197
316 315 315 313 310 307 303 298 292 284 278 274 267 268 275 278 284 288 281 270 287 290 283 278 278 286 292 289 286 288 292 297 301 302 303 303 296 287 280 275 272 271 271 277 280 282 292 301 302 298 293 291 289 284 284 284 279 273 273 275 284 299 295 248 158 132 138 165 226 261 241 229 227 188 209 234 244 244 255 263 255 257 253 228 205 207 208
314 315 315 313 310 309 303 295 289 283 280 276 268 270 276 278 280 278 272 275 282 276 279 285 285 288 290 289 294 299 298 298 300 303 308 312 304 292 283 274 264 268 274 273 271 276 297 308 305 298 296 299 297 288 284 283 281 281 282 278 278 288 294 290 155 142 140 155 199 227 247 304 345 291 215 219 254 254 266 276 284 24 42 66 91 49 8
314 314 315 313 311 310 303 296 292 287 285 282 275 274 277 275 273 273 273 273 265 275 288 293 289 288 289 299 316 321 311 303 300 303 304 301 297 293 290 291 293 294 285 266 251 283 329 305 301 303 306 313 303 291 291 285 276 279 282 277 278 288 293 311 23 127 150 174 209 250 294 307 293 275 259 91 88 116 126 217 283 47 80 96 99 69 37
316 316 316 316 314 310 305 301 298 294 290 286 279 275 275 274 272 272 272 268 273 287 279 259 268 291 303 314 318 312 306 305 307 309 302 297 297 298 302 309 312 309 302 286 212 99 351 278 291 302 302 304 293 293 309 305 284 275 272 263 258 276 306 340 339 35 100 141 204 231 252 244 227 243 335 85 106 105 100 92 339 354 58 78 84 74 57
322 320 319 320 318 313 309 305 301 299 295 289 284 279 277 279 279 276 271 266 268 278 262 263 288 302 306 304 297 294 301 312 318 316 308 312 314 308 314 322 317 310 311 311 215 126 230 246 261 270 269 296 306 297 300 309 316 314 316 318 305 292 339 2 336 353 76 84 208 219 223 231 199 192 234 163 108 93 75 25 331 332 22 64 77 71 64
328 325 324 325 321 315 312 307 304 302 295 288 284 281 281 286 285 280 274 267 260 262 267 276 291 296 295 295 295 299 304 299 303 313 305 310 313 313 326 332 323 314 319 318 205 160 208 224 240 256 255 272 303 300 297 304 317 338 348 343 334 330 357 16 359 352 77 93 341 260 218 221 225 202 218 183 118 99 93 258 257 295 15 55 72 66 52
333 331 329 328 323 319 315 310 308 305 297 291 284 281 285 290 287 284 281 274 263 263 270 274 279 280 280 288 291 291 296 298 303 310 296 297 305 314 322 324 322 325 328 318 232 200 215 222 241 254 244 231 246 280 293 298 306 349 9 352 335 342 356 28 18 340 14 92 241 283 329 266 295 360 360 109 105 104 179 217 216 305 49 60 68 63 48
337 333 329 328 325 321 318 314 313 310 304 299 292 287 289 290 288 292 287 271 253 260 274 278 279 278 280 285 285 284 288 289 284 285 294 291 308 314 307 304 320 345 325 302 220 229 224 216 239 263 251 225 220 261 281 288 304 351 18 5 351 360 358 13 21 330 315 351 199 294 333 302 341 35 27 41 81 116 207 131 49 48 61 63 63 61 55
335 332 330 328 325 323 322 318 316 313 308 306 298 290 290 292 292 293 284 267 258 269 279 283 278 273 275 279 280 281 284 279 268 265 270 268 303 321 313 297 7 1 323 288 271 250 229 220 224 240 245 231 220 282 285 278 281 312 13 24 14 5 344 347 11 329 287 269 149 97 334 316 359 41 29 19 114 197 170 71 49 51 61 66 62 57 55
335 332 331 331 328 326 325 318 315 314 309 305 300 293 292 297 299 293 283 273 266 270 280 286 281 272 271 272 272 274 276 273 270 272 275 276 288 309 308 287 308 347 37 349 321 287 278 265 240 238 248 239 165 246 291 286 277 309 60 79 36 10 1 356 14 5 340 283 312 56 327 316 321 324 86 47 66 99 98 88 66 51 56 65 64 57 54
337 334 333 334 331 328 326 320 316 314 309 306 303 294 292 296 298 294 289 282 272 269 274 281 284 280 275 271 270 270 269 266 264 265 270 280 278 259 258 282 291 182 154 320 298 284 317 310 289 284 274 251 181 211 282 292 292 35 61 83 109 44 19 234 232 320 337 282 290 325 325 322 328 12 92 73 66 79 86 85 74 59 58 65 66 60 60
337 335 333 332 330 328 325 321 317 314 311 311 306 296 293 297 298 295 294 290 282 282 286 289 287 286 283 280 279 280 275 266 260 258 258 265 272 266 263 270 266 183 179 189 182 255 300 287 289 303 288 265 250 174 134 272 295 355 34 79 106 76 35 245 244 320 324 289 314 353 332 327 342 19 80 87 80 79 81 80 75 68 68 70 69 66 65
335 334 333 331 330 328 325 321 318 314 312 311 307 301 297 297 298 298 298 295 290 292 298 295 281 273 281 290 290 289 282 269 262 261 254 249 254 264 265 264 256 193 173 196 242 255 264 271 279 282 278 273 260 148 113 73 333 346 345 358 96 60 34 15 313 334 335 314 11 12 329 319 346 13 53 84 85 82 81 81 78 76 74 73 71 69 67
335 333 332 330 329 327 325 323 320 316 315 313 310 305 298 296 298 298 295 294 293 294 303 296 282 278 286 294 290 285 283 275 266 262 254 245 244 246 249 261 268 243 224 267 263 241 239 274 292 289 288 274 237 186 122 122 92 18 351 331 343 10 11 9 331 325 323 294 335 344 313 313 353 27 41 67 82 83 82 81 80 78 76 75 74 72 69
334 332 331 328 326 325 323 321 318 316 315 313 309 305 300 297 297 293 289 289 288 282 267 274 287 295 303 297 287 283 283 280 272 264 255 247 243 242 245 254 262 265 267 264 249 245 249 245 265 287 291 272 256 196 162 191 174 141 262 261 260 302 337 360 343 322 310 294 310 338 315 315 350 35 50 61 77 82 82 82 80 77 75 74 75 74 72
336 335 332 328 325 322 319 317 317 314 313 312 310 306 300 296 294 290 287 286 282 276 263 270 290 304 308 299 293 293 288 281 274 267 260 251 243 238 239 243 247 253 261 260 257 262 261 216 252 277 280 287 292 267 193 202 178 161 236 248 232 265 298 21 360 329 311 324 349 15 9 306 324 13 52 71 78 80 82 82 78 75 75 75 76 75 74
333 334 333 329 325 321 319 319 317 314 313 313 311 307 304 302 301 294 286 275 262 262 276 286 292 298 302 302 305 308 299 285 272 260 257 254 242 232 231 235 238 242 246 248 253 256 241 238 269 269 276 292 295 258 202 202 162 191 235 201 188 204 199 135 316 294 277 292 308 316 56 310 318 339 40 79 84 81 80 79 76 77 77 77 79 77 73
328 328 330 329 324 321 321 321 319 317 319 319 314 314 315 314 312 307 293 277 264 267 278 286 290 291 293 299 302 298 290 283 269 252 248 250 245 235 230 228 227 229 233 237 241 243 234 242 248 244 263 282 293 291 273 231 173 242 236 181 188 211 212 234 267 273 281 286 277 245 199 155 340 342 25 74 89 90 86 81 81 83 82 81 81 78 73
325 325 326 325 322 320 320 320 319 318 320 320 319 319 318 313 309 329 341 327 314 304 297 291 289 290 291 294 298 297 289 280 268 253 244 244 245 244 238 230 223 223 229 236 242 249 266 264 257 261 264 263 261 289 294 231 230 271 235 174 225 258 258 273 274 260 271 280 259 211 181 148 123 87 50 64 85 96 96 92 90 88 85 84 83 79 75
328 325 323 319 316 316 316 316 317 316 314 315 312 303 294 287 283 308 321 324 325 319 308 289 281 291 294 295 300 304 299 287 274 264 257 254 251 244 240 240 233 224 223 232 241 243 239 224 226 263 266 252 241 258 314 269 248 283 326 311 275 275 280 283 274 262 256 243 194 160 146 135 128 109 75 68 79 91 95 95 94 91 89 85 82 79 76
332 327 320 314 310 311 313 315 316 315 312 307 294 278 273 281 291 298 301 298 297 298 293 282 282 291 295 302 309 314 313 300 283 268 258 259 263 250 233 233 239 234 228 229 235 240 241 237 240 255 251 232 225 260 300 244 232 322 329 318 282 271 297 286 265 247 207 177 160 135 118 124 128 110 95 93 94 94 93 92 91 91 91 89 84 80 77
333 327 319 313 310 312 315 316 315 312 309 305 298 289 286 288 293 291 282 274 277 278 271 268 288 288 279 296 307 318 325 321 312 301 261 246 262 264 235 223 231 237 230 220 207 205 222 238 258 265 229 203 207 283 273 239 293 335 342 345 22 46 5 270 224 208 184 171 162 140 124 127 123 112 109 111 107 103 102 103 103 97 90 87 85 81 78
333 326 321 318 318 319 320 318 314 310 305 301 302 304 301 298 295 285 270 264 268 264 254 248 257 276 289 295 302 317 328 326 337 348 333 262 279 297 282 232 224 228 222 217 216 213 208 208 253 281 219 194 209 263 259 264 320 15 63 48 13 27 53 81 120 121 104 113 126 123 119 118 114 107 104 100 96 100 107 108 107 103 94 86 80 78 79
337 329 325 325 325 324 324 322 316 311 306 303 307 313 310 301 295 287 281 278 269 252 244 239 232 257 296 298 294 323 336 329 297 296 324 17 333 314 317 355 127 249 240 241 243 238 219 193 207 241 212 179 198 240 271 311 18 72 71 43 15 38 54 54 76 95 106 116 118 114 110 109 107 101 94 88 84 90 96 96 95 96 93 88 84 82 80
343 337 332 332 329 325 325 325 317 310 312 314 311 308 302 295 291 288 285 280 267 250 248 255 241 251 292 302 292 319 334 334 292 259 279 58 20 310 332 68 38 319 322 304 275 259 206 171 186 227 227 200 218 272 335 30 74 78 74 64 60 71 65 63 82 95 101 103 108 112 113 111 109 105 99 93 84 80 82 84 84 85 84 82 82 82 79
347 343 338 338 336 326 318 317 314 312 321 322 310 296 290 288 287 285 280 272 260 247 245 256 257 252 265 280 284 306 324 327 259 249 239 138 109 63 59 68 77 252 269 264 249 243 106 108 140 292 286 260 46 49 58 65 72 78 78 69 60 71 79 86 94 99 96 84 81 89 97 102 106 107 103 96 90 85 82 80 80 81 80 76 76 78 78
354 351 345 341 338 326 310 313 312 310 315 318 304 286 284 282 278 269 253 249 252 240 229 234 251 249 245 252 263 277 297 323 331 313 203 170 154 113 120 197 205 210 237 253 177 149 80 30 16 333 320 354 36 57 75 76 74 74 72 63 61 72 89 100 103 104 100 87 75 74 78 82 89 97 100 98 95 91 87 81 76 76 76 75 77 82 83
0 357 350 337 324 308 299 305 305 302 305 307 291 269 267 258 250 252 226 221 238 227 210 220 243 235 217 225 266 276 277 274 309 322 198 182 178 159 173 204 214 200 210 307 73 102 82 36 26 350 315 319 357 56 85 85 76 71 71 73 71 74 84 94 98 97 97 99 100 97 91 87 86 89 94 97 93 89 88 84 76 69 64 63 71 78 78
1 357 349 329 319 315 309 308 306 304 305 305 279 260 254 226 217 234 216 212 234 220 206 222 253 246 233 229 253 277 266 240 246 303 295 192 203 189 177 188 172 115 156 241 347 45 87 116 58 16 356 320 41 77 86 85 80 76 77 77 74 74 80 89 95 95 95 96 100 101 98 94 90 85 83 85 84 81 80 77 72 68 64 59 58 60 59
354 351 344 334 333 336 334 331 328 316 292 273 259 257 261 235 222 226 234 257 273 225 214 228 254 256 239 226 224 242 258 249 246 258 266 216 220 214 164 124 89 75 139 197 235 348 78 89 40 15 16 39 62 78 85 86 87 91 90 81 80 85 90 93 95 97 97 95 94 94 94 90 86 83 84 83 77 71 69 69 67 67 66 62 57 55 56
344 342 340 340 345 349 346 343 344 327 274 261 268 256 249 264 264 245 236 256 283 288 246 246 257 277 259 227 222 235 254 257 246 236 226 216 208 177 137 111 91 76 115 190 195 228 17 54 49 36 19 32 56 80 93 92 92 98 98 96 101 103 101 97 92 86 86 89 90 91 90 87 83 82 81 78 72 68 68 69 67 65 65 63 61 60 64
342 341 341 341 345 350 347 342 347 348 300 278 298 290 273 293 315 280 261 278 295 308 289 270 274 288 285 233 227 242 252 254 255 243 227 230 237 160 155 127 97 101 184 212 214 40 44 52 56 61 46 34 39 51 60 65 76 81 83 95 105 104 96 92 88 81 78 80 81 81 82 81 80 78 76 74 72 71 70 67 65 65 66 66 66 66 69
352 349 345 338 332 337 343 348 360 360 346 310 315 312 309 319 321 306 309 319 306 310 322 314 298 290 271 204 219 252 265 254 254 249 230 237 262 224 103 71 78 122 155 129 44 41 48 42 29 30 34 33 32 35 40 52 58 51 53 74 92 95 89 85 82 79 77 76 75 76 78 78 76 74 72 71 70 70 70 69 68 68 69 70 72 73 74
349 342 337 332 333 345 354 360 360 358 343 304 307 304 300 314 319 311 314 311 286 288 316 324 308 286 276 241 230 244 249 250 259 269 268 282 32 43 41 55 98 103 74 60 44 43 52 34 14 20 27 29 31 39 54 67 71 66 65 74 82 85 84 83 81 81 82 80 77 76 77 79 78 75 72 71 71 71 72 72 70 69 69 69 69 69 70
336 328 330 338 341 346 349 326 328 351 327 304 319 315 300 298 304 301 301 301 293 291 305 317 319 315 321 331 316 247 251 257 289 10 313 338 51 39 316 224 108 38 43 56 53 48 52 40 12 15 21 24 30 44 60 77 90 95 93 91 90 89 87 83 81 81 82 82 82 80 79 79 79 76 73 72 72 72 74 74 72 71 72 70 67 66 67
325 320 324 325 321 333 348 345 327 308 283 294 313 321 321 323 330 332 329 323 317 315 316 317 324 331 299 244 277 31 313 280 316 41 326 7 65 37 276 46 48 32 39 52 50 49 51 26 11 13 19 25 40 66 84 95 103 104 98 90 87 90 90 87 84 84 84 83 83 82 80 79 78 76 74 74 74 75 77 77 73 71 71 72 71 69 66
314 311 316 330 325 276 273 288 296 297 295 302 319 337 347 351 351 354 356 355 354 354 345 329 321 321 315 338 32 45 336 318 357 29 358 42 72 36 22 44 44 35 42 50 47 49 34 14 13 22 32 37 42 50 59 71 88 98 99 95 89 86 87 87 86 86 86 85 83 82 81 81 80 77 74 74 74 74 75 75 71 68 66 67 71 74 72
289 285 303 340 348 326 325 319 306 312 335 345 352 359 360 355 350 356 2 1 1 8 11 360 356 2 355 348 3 23 1 353 4 9 10 30 43 31 31 52 52 44 45 42 27 30 26 21 28 45 54 55 54 56 53 50 55 72 85 91 89 85 85 86 84 83 85 86 85 85 84 82 79 76 73 71 69 67 67 65 63 60 59 59 64 70 72
296 290 338 7 5 350 349 354 355 352 352 355 0 5 1 351 349 1 8 6 5 14 29 30 27 28 12 344 360 28 17 7 10 13 17 27 29 22 36 55 58 52 53 53 46 40 35 34 45 56 58 56 58 61 60 59 63 68 74 80 82 82 83 83 81 80 80 79 79 80 81 77 73 71 70 68 63 55 51 50 50 49 49 53 61 66 67
353 356 12 23 19 4 357 3 9 6 352 349 356 4 3 351 349 1 11 12 13 20 31 26 12 9 11 19 24 7 329 340 4 23 26 25 13 7 37 54 58 57 58 57 54 52 49 49 56 60 58 56 59 63 60 61 66 71 75 77 79 79 79 80 78 77 76 73 70 72 74 74 70 67 65 64 59 53 50 52 54 52 48 46 49 60 68
2 1 11 20 19 15 15 15 7 359 0 3 6 10 12 8 4 9 18 24 26 25 18 7 12 29 34 14 1 321 323 9 29 35 35 31 15 21 47 59 62 67 70 66 62 62 63 64 68 69 65 62 67 74 77 78 78 76 74 73 73 73 75 75 73 73 75 74 72 70 69 67 66 66 64 59 53 49 49 50 50 51 51 49 48 56 69